Theta_e
304 304 304 304 302 302 303 304 304 305 306 308 311 312 315 317 320 321 321 322 323 324 324 325 325 326 327 327 328 327 326 324 323 323 323 322 321 319 317 317 316 316 316 318 316 315 314 314 314 313 313 313 312 312 311 310 310 308 306 306 307 305
302 303 303 304 304 304 303 303 303 303 304 306 308 311 314 316 318 319 319 321 321 323 324 324 325 325 325 326 326 325 323 323 322 321 321 320 317 317 316 315 313 312 312 313 313 313 313 313 313 313 313 312 311 309 309 307 308 306 304 303 304 303
302 303 303 302 301 300 299 300 302 304 304 304 305 307 309 312 314 317 318 319 320 320 321 322 322 323 323 323 323 323 321 321 321 321 320 318 314 314 313 312 312 312 312 311 310 310 310 310 308 309 310 309 307 306 306 304 305 304 302 300 299 300
302 303 302 301 299 300 301 302 302 303 303 303 303 304 306 309 312 314 315 317 319 319 320 320 321 321 321 320 320 320 321 321 319 318 317 314 313 312 311 311 311 310 312 311 311 309 308 308 307 307 308 306 303 302 303 303 305 302 298 297 295 296
302 301 299 297 298 300 301 301 302 304 305 304 304 304 304 307 310 313 314 315 316 317 319 319 318 318 317 317 316 316 317 317 316 316 313 312 310 309 310 310 309 309 309 309 309 308 306 306 305 305 306 305 303 301 300 303 303 299 295 296 294 294
299 298 300 301 302 302 302 302 302 303 303 303 303 304 305 306 308 310 311 313 314 316 315 315 315 314 314 314 314 314 315 315 314 312 312 310 308 307 307 308 307 306 305 306 304 303 303 303 302 303 305 307 305 302 300 300 299 297 296 295 294 293
302 304 304 303 303 302 302 302 303 302 303 303 302 302 303 304 306 307 309 310 310 311 312 312 312 312 312 312 312 313 313 311 311 309 310 308 306 306 304 302 304 304 304 303 301 300 300 300 300 302 303 304 304 302 299 298 296 296 295 295 295 291
302 301 301 302 302 301 301 301 301 302 302 303 303 302 302 302 303 305 306 307 308 308 309 309 309 310 310 310 310 310 309 307 306 306 306 305 304 301 301 301 300 301 301 301 300 299 298 297 298 300 300 300 300 298 297 294 294 295 295 295 294 292
303 305 304 302 301 301 300 299 301 301 301 302 302 302 302 302 302 303 305 306 307 306 307 307 307 308 308 307 307 304 303 303 302 302 302 300 300 298 297 296 298 297 299 298 298 298 297 296 297 297 298 297 297 296 295 293 293 294 294 294 292 291
304 305 304 302 301 299 299 299 298 300 301 301 301 300 300 301 302 303 303 304 304 305 305 304 304 303 303 303 301 300 299 299 298 299 298 297 297 297 297 297 297 296 297 296 296 296 296 296 296 296 296 293 293 295 295 293 293 293 291 290 290 290
304 304 303 302 300 298 299 299 299 298 298 299 301 300 300 301 301 301 302 302 303 304 304 303 300 301 299 297 297 297 297 296 296 296 296 296 296 297 296 296 296 295 295 296 296 295 295 296 293 293 294 292 293 294 294 294 292 290 289 289 288 288
303 302 302 301 301 300 299 299 299 299 299 299 299 299 300 300 300 300 301 301 302 301 299 298 296 297 296 296 296 296 295 295 295 294 294 295 295 295 294 294 295 295 294 294 294 294 295 294 294 291 291 292 293 294 293 291 290 289 289 288 287 287
302 302 301 301 301 301 301 301 301 300 299 299 299 299 298 298 299 300 300 300 297 295 294 294 294 293 294 295 295 294 294 294 293 293 293 293 293 292 292 292 292 293 294 293 292 291 292 293 292 289 292 293 293 291 291 290 289 289 288 287 287 286
301 301 301 301 301 301 301 301 300 299 299 299 299 299 297 297 298 299 299 298 294 293 294 293 293 292 292 293 293 292 292 292 291 292 291 291 291 291 291 292 293 292 291 292 292 292 291 291 289 291 292 293 292 291 290 290 289 288 287 287 286 286
300 300 300 300 301 301 302 301 300 299 299 299 299 297 294 296 297 298 298 295 294 293 293 292 292 293 292 292 291 291 291 291 291 291 290 291 291 290 290 292 291 290 290 291 291 291 291 290 289 291 292 292 292 291 289 289 288 287 287 287 286 285
300 300 300 300 300 300 301 300 300 300 300 300 298 296 296 296 296 297 296 294 294 293 292 292 292 292 292 291 290 290 290 291 291 290 291 290 289 289 290 290 290 289 290 290 290 290 290 290 289 290 291 291 291 290 289 288 288 287 287 286 286 285
300 299 299 300 300 300 300 298 297 298 297 297 296 296 295 295 296 295 295 294 293 293 292 292 292 292 291 290 290 290 290 290 290 290 289 289 289 289 289 289 289 289 289 290 290 291 290 290 289 291 291 290 290 290 288 288 287 287 286 286 286 285
299 298 298 298 298 299 299 299 297 296 296 296 296 295 295 295 295 295 295 294 293 293 292 292 292 292 291 290 290 290 290 290 289 289 289 289 289 289 290 290 289 288 288 289 290 292 290 290 290 290 290 290 290 289 287 287 286 286 285 285 285 285
296 296 296 296 297 297 298 297 295 296 295 294 294 294 294 294 294 295 294 294 294 293 292 292 292 292 291 290 290 289 289 289 288 288 289 289 289 289 289 289 289 289 288 288 288 288 289 289 290 290 290 289 289 287 286 285 285 284 284 284 284 283
294 294 294 294 295 296 296 295 295 295 294 293 293 293 293 293 294 295 295 294 294 293 293 293 293 290 290 289 289 289 289 289 289 288 288 289 289 289 288 289 290 288 288 287 288 288 288 288 288 289 289 289 288 287 285 285 285 284 283 282 282 283
292 291 292 293 294 295 293 293 293 294 293 293 292 292 292 292 294 294 294 294 295 294 293 292 291 290 289 289 289 289 289 288 288 289 288 289 289 289 289 289 288 288 288 287 287 286 287 287 287 288 289 288 287 286 285 285 284 283 282 281 281 281
291 293 294 294 295 293 292 293 293 291 294 293 292 291 291 292 293 295 296 296 294 293 290 290 289 289 289 288 288 288 288 288 288 287 288 288 289 288 288 287 287 286 286 286 286 286 287 287 287 287 288 288 287 286 285 285 283 282 281 281 280 279
291 292 292 293 292 292 291 292 292 291 293 293 291 290 291 293 294 294 294 294 293 290 289 289 289 288 288 288 288 288 288 288 288 287 287 287 287 287 286 286 286 285 285 286 286 286 286 287 286 286 288 287 286 286 285 284 284 283 281 280 279 279
290 290 291 289 289 289 290 290 290 291 292 291 290 292 293 293 294 293 293 291 289 288 288 288 288 288 288 288 288 287 287 287 287 287 287 288 286 285 284 284 285 285 285 285 285 285 285 285 286 286 286 287 286 286 285 284 284 283 282 280 279 279
290 289 287 286 286 288 289 289 288 289 289 289 291 292 292 292 293 292 292 289 288 287 287 287 287 287 287 287 287 287 287 286 286 285 286 285 284 284 283 283 283 283 284 284 285 285 284 285 285 285 285 286 286 285 285 285 284 283 283 281 279 279
287 287 285 285 286 287 288 287 287 287 288 289 290 289 289 290 290 289 288 288 287 287 287 287 286 287 287 287 286 286 286 286 285 285 285 285 285 284 283 283 283 283 283 282 283 283 284 284 284 284 284 285 285 285 285 284 284 284 282 282 281 280
286 285 286 286 284 285 286 287 286 286 286 288 287 287 287 287 286 286 286 285 285 286 286 286 287 286 286 286 286 286 286 285 285 284 285 285 285 284 284 283 283 283 282 282 282 282 282 283 284 284 284 284 284 285 284 284 283 284 283 280 281 280
283 282 284 285 284 284 283 284 285 286 287 286 285 285 285 285 285 285 284 284 284 284 283 284 284 284 284 285 286 286 286 285 285 285 285 285 285 284 284 283 282 282 282 282 282 281 281 282 283 283 283 283 284 284 284 283 283 283 282 280 279 279
285 282 281 283 282 282 281 281 281 281 283 283 284 283 283 284 284 283 283 282 283 282 283 284 285 284 283 284 285 286 286 285 285 285 284 284 284 284 284 283 282 282 282 281 282 281 281 281 282 282 282 283 283 283 283 283 282 282 280 278 279 279
282 280 281 282 280 279 279 278 278 278 279 281 281 281 282 283 283 283 282 281 282 283 283 284 280 282 284 284 284 285 285 285 285 285 284 284 285 284 283 283 282 282 281 281 281 280 280 280 281 282 282 282 282 282 282 282 281 280 278 277 278 278
280 280 280 279 278 277 277 276 277 277 277 278 279 280 282 282 280 280 279 280 281 281 281 283 282 283 284 283 283 284 285 285 285 285 285 285 286 286 285 283 283 283 283 283 282 281 280 280 280 281 283 282 282 282 281 281 280 280 279 278 279 277
278 279 278 277 276 276 276 276 276 276 276 277 278 279 280 279 280 280 279 280 281 280 281 282 282 281 282 282 283 282 281 278 281 283 285 285 283 282 283 284 284 284 284 283 284 283 282 281 282 282 283 282 283 283 283 282 281 281 279 279 280 276
277 277 276 276 275 274 274 274 274 274 274 275 276 277 278 278 281 281 279 279 280 279 280 280 281 281 281 282 282 282 281 281 281 281 280 281 282 282 282 282 283 283 284 283 283 283 282 281 281 282 282 282 283 283 283 282 281 281 280 280 277 274
276 276 275 275 274 274 273 273 272 272 272 272 273 275 277 277 280 281 280 279 278 277 278 279 279 279 280 280 280 281 281 281 281 280 280 279 280 280 281 281 282 283 283 283 282 282 282 281 281 282 282 282 282 283 283 282 282 282 281 281 278 273
276 276 275 274 273 273 273 273 272 271 271 271 272 273 274 274 276 277 277 277 277 278 277 278 278 279 279 279 278 279 279 280 280 280 280 280 279 279 280 280 281 281 282 283 283 283 282 281 281 282 282 282 282 282 282 282 282 282 281 281 276 273
275 274 274 273 273 274 273 272 271 270 269 270 271 271 272 272 272 274 277 278 277 277 278 278 278 278 278 279 278 279 279 279 280 280 281 281 280 279 280 280 280 281 281 281 282 282 282 282 281 282 282 282 282 282 282 282 281 282 282 280 276 274
274 274 273 273 273 273 272 271 269 268 268 269 270 272 272 272 273 275 272 270 273 277 277 277 277 277 277 277 278 278 277 278 278 278 278 279 280 280 280 280 280 280 281 281 281 282 282 282 281 282 282 282 282 282 282 282 279 278 278 278 277 275
273 273 273 273 273 273 272 270 268 268 267 269 270 271 271 272 273 274 276 276 274 276 276 277 277 277 277 277 276 277 277 276 277 277 277 278 278 278 279 279 280 280 280 280 280 280 281 281 281 281 282 282 282 282 282 278 277 277 277 277 277 275
Wind_Speed
4 4 5 5 5 6 7 6 6 6 8 9 10 12 12 12 10 11 13 15 13 10 12 13 12 10 9 9 8 7 12 12 10 11 10 9 8 8 9 10 9 10 10 10 11 11 10 9 9 9 8 7 6 7 8 8 9 8 7 6 7 6
5 5 5 5 4 3 3 5 5 7 7 7 9 9 8 8 10 10 12 13 14 9 9 10 8 9 10 9 13 12 11 11 10 10 10 10 8 10 11 10 11 10 11 10 11 11 10 10 7 7 7 6 6 7 8 8 10 9 8 6 6 6
5 5 3 3 4 4 4 4 5 5 5 6 7 8 9 9 9 10 13 12 14 13 14 12 11 11 9 9 10 10 10 10 10 11 11 9 12 10 11 11 12 12 12 12 11 11 11 9 8 6 7 7 7 7 8 8 8 7 7 7 6 6
5 4 2 2 4 5 5 5 5 5 6 5 5 6 7 8 9 9 11 11 11 13 13 12 10 10 9 10 10 11 10 10 9 10 9 11 11 10 12 12 11 11 12 13 13 11 11 11 9 8 8 8 8 7 6 8 10 9 6 7 7 6
5 5 5 5 5 6 6 7 7 5 5 4 5 6 7 7 7 8 9 10 11 11 10 8 9 9 10 10 9 10 10 9 10 10 11 10 10 10 11 12 11 11 11 12 12 12 11 11 11 10 9 10 10 10 8 8 10 10 9 8 8 8
4 5 5 5 5 6 6 7 6 6 6 5 5 6 6 6 6 7 9 10 10 9 7 8 7 9 10 11 10 11 11 10 10 10 11 11 10 11 9 10 12 11 12 12 10 11 12 11 12 10 11 13 12 11 10 9 9 9 8 8 9 9
5 6 5 5 5 5 5 6 6 6 7 6 6 7 6 6 6 7 8 9 8 7 7 8 8 9 10 11 9 11 11 10 9 10 11 10 10 10 10 8 8 12 12 12 13 12 10 11 11 11 10 10 11 11 10 10 10 10 9 10 10 10
6 7 6 5 5 5 4 5 6 6 6 7 7 6 6 6 6 7 8 8 8 7 8 8 8 9 10 10 9 10 9 9 9 9 8 9 11 9 8 10 9 10 11 11 12 11 10 10 10 11 10 10 10 10 10 10 10 9 10 10 10 9
8 8 6 5 5 4 4 5 6 7 7 7 6 6 5 6 6 6 8 8 9 7 8 8 8 7 8 8 7 6 7 8 8 9 9 8 9 11 10 8 9 9 11 10 10 10 10 10 10 10 10 11 10 12 11 10 9 10 10 10 8 7
9 7 5 4 4 4 4 5 7 7 7 8 5 4 5 5 6 7 7 7 7 8 8 7 6 6 6 6 5 6 7 7 7 8 7 8 10 10 11 13 11 9 9 10 10 9 9 10 10 9 11 12 13 11 10 10 11 12 10 7 7 6
9 8 5 3 3 4 5 5 6 7 7 6 5 5 6 5 6 7 6 6 7 7 6 6 5 5 6 6 6 7 7 7 7 7 8 8 9 9 10 9 11 11 9 9 9 9 9 11 12 11 13 15 11 10 12 12 11 10 9 8 7 6
8 7 6 4 4 5 5 5 6 6 7 7 6 6 5 4 6 5 5 6 6 4 3 4 3 4 5 6 8 8 8 8 7 8 8 8 8 8 8 9 9 11 14 12 9 10 10 11 11 13 17 15 11 13 11 9 9 9 9 9 9 7
8 7 6 5 4 5 5 6 5 5 6 7 7 6 5 5 6 5 5 6 3 2 2 2 3 2 4 5 5 5 6 7 7 7 8 8 8 9 9 9 9 10 11 12 13 13 11 11 9 15 15 17 16 10 9 10 9 9 9 9 9 9
7 7 8 7 5 5 5 5 5 5 7 8 8 7 6 6 6 6 6 5 4 4 4 4 3 3 2 2 4 5 5 6 7 8 8 8 9 7 7 10 11 11 11 10 10 10 10 10 10 16 17 16 16 14 10 8 9 8 8 8 8 8
6 8 9 7 6 6 7 5 5 7 6 7 9 6 7 7 7 6 6 5 6 6 5 5 5 5 4 4 5 5 6 7 7 8 8 9 8 8 10 10 10 10 9 9 10 9 9 9 12 16 18 16 17 16 12 7 8 9 9 9 8 9
5 6 7 8 8 7 7 4 6 5 4 6 6 8 8 8 7 7 6 6 6 6 5 5 6 6 6 5 5 5 6 6 8 6 6 5 5 8 8 7 9 7 8 8 8 8 7 7 13 18 18 17 18 15 10 7 8 8 8 8 9 8
6 8 8 7 6 5 3 4 5 4 4 6 8 8 8 8 8 8 8 8 7 7 6 6 6 7 6 7 7 7 7 7 6 5 4 4 6 8 8 8 7 5 6 7 7 8 8 8 16 19 19 18 19 15 8 8 7 7 7 6 7 8
5 8 10 7 6 5 4 5 2 4 4 5 7 7 7 8 8 8 8 7 7 7 6 7 7 6 6 6 6 6 7 6 6 7 5 5 4 3 4 4 5 8 8 8 9 11 10 9 19 19 19 20 18 15 6 8 8 7 7 7 7 6
5 6 7 7 6 7 5 3 2 3 3 5 7 7 7 7 9 8 8 8 8 8 8 8 8 8 8 7 7 7 6 7 6 4 4 6 6 7 7 7 7 7 7 8 8 9 9 10 17 18 19 19 18 13 6 6 6 6 7 7 6 6
3 4 4 7 7 5 3 2 3 4 4 6 6 7 8 8 9 7 7 8 8 8 7 7 8 7 7 7 8 8 6 5 4 6 6 7 7 6 5 6 6 6 6 7 8 8 8 8 14 18 17 16 18 8 9 8 7 7 6 6 6 5
5 7 6 5 5 2 1 3 4 4 5 5 6 6 8 8 6 5 6 6 6 6 6 7 6 5 6 7 7 6 6 6 6 5 4 3 3 4 5 5 5 6 5 6 6 7 8 8 12 17 15 15 16 12 6 7 7 8 6 6 6 5
5 5 5 5 5 3 2 3 4 3 4 4 5 7 8 7 6 5 5 4 5 5 4 4 5 5 6 7 6 5 5 4 4 5 5 4 4 4 4 5 4 8 4 3 4 6 6 8 8 13 14 15 16 14 10 6 9 8 8 6 7 7
3 4 5 5 5 4 1 3 3 4 4 3 5 7 7 6 4 4 4 4 4 3 4 4 5 6 5 5 6 5 5 4 5 5 5 5 3 4 3 4 3 3 3 3 2 3 3 6 9 11 14 15 16 16 11 7 6 7 8 9 7 7
2 3 3 3 5 4 1 1 2 3 3 3 5 6 4 5 5 5 5 5 3 3 3 3 3 4 5 5 5 6 5 3 4 5 6 4 4 6 6 4 4 4 4 3 2 2 3 4 7 6 14 13 15 16 13 7 7 7 9 8 6 6
1 2 4 4 5 4 2 0 2 1 1 3 3 0 2 4 4 5 5 3 3 3 3 3 4 4 4 5 5 6 6 5 5 4 4 5 6 6 6 5 4 5 5 4 4 3 3 4 5 9 9 13 14 15 15 9 6 10 6 8 9 10
1 2 3 4 5 4 3 2 2 2 2 3 3 1 0 1 1 2 3 3 3 2 3 2 2 2 2 3 4 4 6 6 6 6 5 6 7 7 6 6 6 6 6 6 5 4 4 4 4 7 10 11 14 14 14 13 11 13 6 5 5 6
2 2 3 4 6 5 4 3 2 3 3 3 1 0 0 1 2 2 2 2 3 4 3 3 3 3 2 3 4 5 6 6 7 6 5 6 6 6 7 6 7 7 7 6 6 6 5 6 6 6 9 11 12 13 13 12 12 13 11 6 3 4
2 3 4 5 7 6 5 4 3 3 3 2 1 1 1 2 2 1 2 2 2 2 4 5 4 4 4 5 4 4 4 5 6 6 6 6 6 6 6 6 7 7 7 7 6 6 6 7 6 6 6 7 8 9 12 12 13 12 12 4 4 7
3 4 5 6 6 6 5 5 5 4 4 4 3 3 2 1 1 2 2 1 1 1 2 4 3 4 3 4 4 5 5 6 6 6 6 7 7 7 7 7 8 8 8 7 7 5 6 7 7 6 7 7 7 7 8 9 9 11 10 6 5 8
4 4 5 5 5 5 5 5 6 6 6 5 5 4 2 2 2 1 2 2 1 0 1 1 2 3 3 4 5 5 5 6 7 8 9 10 10 10 9 8 8 9 9 9 7 7 6 7 7 8 10 10 9 8 8 8 7 7 7 7 7 7
5 5 6 5 4 4 4 5 5 5 6 5 5 5 3 3 3 3 3 1 1 1 0 0 1 2 1 2 2 2 3 5 6 6 5 3 4 6 7 9 9 8 7 7 9 10 9 7 9 13 11 9 10 9 9 10 10 8 8 8 11 7
5 5 6 4 3 3 3 4 5 5 6 5 5 5 4 3 2 2 2 1 0 1 1 1 1 1 1 1 2 2 1 6 6 4 2 3 0 4 6 4 4 3 3 5 5 5 6 7 2 7 12 10 12 12 10 5 3 6 7 11 16 8
5 6 6 4 3 3 4 5 5 6 6 6 5 5 4 3 1 1 1 1 1 2 1 1 1 1 1 1 1 1 2 1 1 5 6 6 4 1 2 1 3 3 5 4 4 3 4 3 4 11 14 14 15 15 14 11 11 13 13 17 12 7
6 6 5 4 4 4 4 4 5 5 6 6 5 5 4 4 2 2 1 1 1 1 1 1 1 1 1 1 1 1 2 2 2 1 3 3 2 1 1 0 2 3 5 6 5 4 4 4 6 11 16 17 17 17 16 15 14 17 17 19 13 6
4 4 3 3 4 5 4 5 5 4 4 6 6 6 6 5 4 2 1 1 1 1 1 1 1 1 1 1 1 1 2 2 3 3 2 2 2 0 1 2 3 4 4 7 7 8 7 6 8 12 15 17 17 16 16 16 16 17 18 18 12 9
4 4 4 4 6 6 6 7 6 5 5 5 5 5 5 5 4 2 1 1 1 1 0 0 0 0 1 1 1 1 1 2 3 3 2 2 1 1 2 3 5 5 6 7 8 9 11 11 12 13 14 16 17 18 18 18 14 18 20 19 11 8
5 5 5 6 6 7 7 7 6 5 5 5 5 4 5 4 4 2 3 4 2 1 1 1 1 1 1 1 1 1 1 2 2 2 3 3 3 3 3 2 2 5 7 5 6 10 11 12 12 12 13 15 16 18 18 17 11 12 14 16 14 11
7 6 6 6 6 6 7 6 5 5 5 5 4 5 5 4 3 3 2 2 2 1 1 1 0 0 1 1 1 1 2 3 2 3 3 3 3 3 3 2 1 0 2 6 5 6 8 10 10 11 14 15 17 18 20 15 14 12 13 13 14 10
Wind_Direction
279 271 273 280 273 275 273 278 270 256 245 243 244 241 233 227 224 221 226 228 227 223 225 225 224 217 215 216 213 203 211 201 192 195 193 186 181 174 172 178 176 175 177 175 172 171 169 163 159 155 156 151 152 162 161 160 169 163 157 155 156 152
279 276 279 279 283 287 290 286 281 272 265 256 247 249 249 239 229 218 223 224 224 215 213 216 216 212 210 208 212 209 207 200 193 190 188 187 155 177 177 177 176 174 173 171 169 168 165 166 159 160 148 149 156 165 165 165 170 162 154 145 150 151
295 292 293 294 294 281 273 267 268 267 257 253 253 247 243 238 236 232 231 228 226 219 215 212 208 206 201 199 204 205 198 195 194 194 191 175 177 173 178 180 178 175 174 167 167 167 166 166 159 157 151 149 158 167 166 161 163 136 153 144 136 136
292 283 294 287 283 275 259 249 250 247 239 237 235 240 245 237 232 227 232 231 230 224 218 212 203 200 196 195 195 201 198 196 194 187 174 182 181 180 181 181 179 176 175 171 170 169 168 169 160 157 155 151 156 160 162 166 168 154 149 147 143 143
286 293 292 282 268 264 259 253 242 243 251 252 248 243 245 238 243 236 233 230 228 225 218 205 200 194 194 194 194 197 194 190 188 182 180 182 181 186 184 180 176 174 173 171 170 169 166 168 166 157 157 158 159 167 168 165 164 157 154 153 149 150
290 291 278 258 243 240 241 247 250 253 254 254 257 255 260 254 244 239 236 234 232 223 212 207 197 196 196 198 196 197 196 190 188 181 184 183 177 181 186 181 172 169 168 168 156 158 158 167 160 164 170 172 170 169 168 165 157 155 157 159 159 158
287 279 270 259 253 248 252 250 248 247 247 243 241 247 248 248 244 239 236 233 228 220 214 209 198 198 200 200 198 200 194 190 184 182 184 175 178 179 167 169 173 168 166 165 154 158 164 166 165 163 166 165 170 168 163 164 153 154 160 167 172 173
299 279 264 261 254 250 256 261 256 255 250 244 239 242 243 242 242 240 239 234 228 220 216 210 205 206 204 203 201 198 190 184 180 179 179 174 171 162 168 167 169 171 166 164 168 165 161 162 165 165 164 161 158 156 153 130 130 155 164 174 179 176
276 272 274 265 277 266 260 263 261 259 258 252 238 236 240 243 240 234 230 229 226 219 218 211 209 208 206 202 197 184 180 180 177 173 172 171 164 162 161 170 167 168 159 159 159 163 159 163 166 166 162 159 159 150 151 154 154 161 170 180 168 162
286 281 280 291 281 276 263 260 258 254 252 252 243 235 236 232 235 236 228 221 223 218 217 213 204 201 198 189 179 179 181 176 173 175 164 159 163 169 169 166 168 163 153 155 164 163 162 162 164 165 161 131 136 155 161 159 163 170 172 155 147 140
301 307 311 311 295 271 260 253 253 249 247 249 247 233 229 226 230 238 234 230 230 225 217 207 199 192 181 174 172 172 174 174 170 163 162 168 169 170 170 165 157 153 150 156 162 162 167 170 163 154 155 146 159 159 164 168 168 159 147 143 136 137
300 303 309 296 272 267 250 250 243 240 245 243 236 228 229 211 227 237 245 241 241 243 233 214 199 189 178 174 176 178 171 167 165 161 165 169 166 163 161 158 165 160 156 159 167 167 165 161 160 168 164 164 160 166 169 162 153 150 145 140 137 142
295 298 293 289 278 264 257 245 243 234 240 238 230 222 203 194 220 224 231 238 244 239 231 216 212 185 188 187 169 160 159 156 155 159 162 161 162 163 163 159 162 167 162 158 149 154 165 155 165 165 166 167 166 163 155 153 149 147 142 142 148 152
303 308 302 300 291 268 251 246 232 220 228 226 222 211 180 192 208 211 218 216 186 190 193 198 181 185 186 158 164 159 158 153 157 163 163 160 159 162 163 168 169 162 127 126 157 169 159 133 162 167 169 172 173 174 161 151 145 146 145 147 150 148
290 286 287 283 274 268 253 241 235 227 217 214 218 183 165 191 199 201 205 198 191 193 190 180 180 178 166 174 164 162 158 164 166 167 166 171 170 149 165 166 152 141 117 153 162 167 168 167 169 170 173 176 174 171 164 143 144 144 149 154 152 150
270 269 270 279 281 268 277 249 239 243 216 208 193 188 197 191 197 199 202 191 198 193 185 179 178 177 174 163 161 162 167 170 175 173 169 152 140 156 155 145 153 147 154 161 161 159 165 166 177 176 175 176 172 167 157 141 142 141 146 152 153 152
284 287 287 282 278 281 275 257 235 240 206 205 203 200 192 195 193 201 197 193 193 186 183 179 178 176 169 167 167 169 173 176 165 157 153 150 156 157 161 158 159 161 160 167 170 167 172 185 176 180 178 173 174 161 135 134 124 132 141 145 150 151
294 295 294 308 306 284 252 264 221 219 223 210 212 202 206 200 204 204 195 197 191 188 183 177 178 173 169 167 167 173 175 174 170 164 154 149 154 155 150 155 164 167 175 179 179 183 185 179 177 177 174 171 166 151 134 138 140 139 145 150 153 149
286 284 294 295 292 291 279 262 211 212 205 217 218 208 211 210 215 209 198 197 191 189 184 183 178 175 172 174 175 182 180 171 166 164 161 160 168 167 173 174 178 179 178 177 178 178 176 171 174 172 168 166 157 149 139 132 133 138 143 149 144 143
292 277 279 291 292 285 291 242 200 197 202 217 215 214 220 219 223 210 198 202 193 188 186 186 183 179 177 176 186 185 181 173 169 170 171 173 171 174 176 170 176 180 180 177 180 181 169 165 172 170 164 158 163 148 136 146 141 138 140 133 136 141
317 302 297 278 284 315 269 206 186 197 212 217 216 218 229 233 242 237 220 212 196 188 183 183 184 185 181 185 187 180 176 176 172 166 168 178 169 165 166 172 168 174 173 177 177 167 167 164 169 172 164 160 160 154 142 141 141 141 147 144 146 148
306 298 303 302 303 318 253 188 191 205 218 214 218 222 231 234 237 245 241 223 194 179 178 178 181 186 183 184 175 170 172 160 156 159 169 165 175 160 154 167 161 167 155 143 164 167 171 165 169 174 162 161 161 161 157 148 146 151 152 154 154 155
276 284 292 302 312 316 240 188 189 211 214 205 224 236 236 236 235 226 220 202 188 189 184 182 183 181 185 180 174 163 159 169 162 155 164 162 155 150 147 136 124 124 126 143 140 150 155 172 170 175 164 163 165 166 158 165 161 149 150 156 158 167
285 299 311 329 325 320 279 206 216 234 215 204 230 240 235 229 224 213 202 191 187 181 177 183 180 179 175 169 160 160 161 154 146 158 164 160 148 131 133 137 145 151 142 137 139 139 144 163 177 167 172 167 169 172 174 170 178 156 147 145 159 166
327 338 328 331 336 333 318 297 257 274 260 249 268 266 197 198 197 198 203 194 174 171 182 183 180 177 165 170 172 164 161 154 153 146 155 143 137 134 138 142 148 147 151 149 162 163 161 158 169 179 176 174 170 176 186 187 151 166 160 155 168 185
345 350 354 354 351 349 355 347 324 327 312 303 355 12 147 154 172 148 158 176 171 159 178 176 176 171 171 167 158 157 154 163 161 159 166 158 156 159 161 169 164 165 163 168 165 167 169 171 168 182 186 180 178 181 183 184 177 174 184 185 175 163
28 22 15 30 17 7 4 7 350 341 322 335 15 332 133 109 101 133 144 131 145 165 153 147 165 167 172 159 164 168 174 166 163 162 163 163 171 171 172 170 169 175 175 174 173 173 174 177 178 178 186 187 184 184 181 178 175 186 184 184 163 136
78 58 37 40 31 14 10 8 9 350 323 341 356 0 35 73 78 77 95 112 141 127 131 138 137 140 142 157 168 174 168 158 171 172 168 177 184 180 176 172 172 179 177 181 181 177 173 177 179 180 175 182 184 187 182 174 181 185 186 157 147 160
52 48 43 46 26 19 8 14 22 11 353 358 6 17 30 57 56 61 51 39 63 85 142 159 169 160 157 166 171 172 171 168 176 173 171 184 184 184 185 179 181 184 187 189 182 165 160 177 187 183 179 184 184 182 174 178 178 171 162 151 160 162
71 61 56 51 27 22 19 21 22 10 9 8 8 3 32 56 42 84 90 87 72 155 185 219 142 161 174 181 181 180 180 185 187 187 188 189 188 183 188 184 187 190 186 188 173 164 171 185 193 194 190 187 181 180 179 177 168 170 175 167 168 162
66 70 70 55 35 33 33 30 23 14 20 14 12 2 11 41 49 54 62 62 82 102 119 241 182 225 209 188 204 214 200 193 196 201 212 220 200 194 187 187 198 199 194 182 174 173 185 191 200 210 194 185 184 177 166 177 186 177 181 178 150 135
77 77 73 57 42 40 37 31 23 18 19 13 18 20 37 29 48 55 56 35 52 62 177 199 193 239 247 215 215 221 293 5 3 345 281 226 329 332 317 281 236 220 195 200 209 195 190 196 211 105 164 180 181 191 192 188 159 163 150 156 159 146
63 79 67 53 39 37 36 38 21 15 9 11 10 31 56 38 18 45 43 19 15 12 334 335 267 217 254 250 244 223 223 218 90 43 24 10 52 62 58 22 264 244 231 221 227 219 277 1 116 155 184 191 198 196 193 183 176 167 163 168 156 166
55 60 64 52 47 43 41 47 33 20 10 6 6 12 41 32 9 7 25 28 21 42 330 329 332 336 272 272 263 256 245 230 228 218 76 66 64 69 165 149 174 186 193 203 213 189 204 183 180 184 192 199 200 201 199 192 185 192 184 185 171 172
78 77 73 67 65 63 56 60 35 20 19 10 7 23 47 37 36 44 40 53 39 42 33 324 326 293 284 272 268 265 255 250 245 244 224 134 117 211 252 238 208 203 212 207 204 194 197 187 189 196 198 200 201 201 205 203 204 201 194 184 189 208
79 71 63 53 45 51 50 48 23 11 360 351 6 44 70 70 73 52 24 13 35 11 2 3 277 270 270 285 285 270 268 267 281 289 297 265 233 205 230 230 235 230 225 227 218 209 209 206 202 202 199 198 199 199 199 198 206 207 204 200 206 199
70 61 48 54 49 49 51 42 14 356 345 349 1 32 49 56 48 64 81 68 30 2 6 354 358 340 324 316 284 265 263 268 282 284 278 275 270 264 254 238 206 212 220 228 230 227 224 222 219 214 208 203 202 200 202 198 203 207 212 215 220 215
69 64 51 46 50 56 59 45 13 348 344 356 15 47 51 43 40 41 41 48 57 34 38 39 37 27 352 337 327 329 315 314 298 277 277 284 285 284 283 284 242 211 216 224 242 244 235 233 229 225 218 208 200 199 196 198 208 209 212 214 218 216